Regional Weather Roundup
Issued by NWS

Home | Current Version | Previous Version | Graphics & Text | Print | Product List | Glossary On
Versions: 1 2 3 4 5 6 7 8 9 10 11 12 13 14 15 16 17 18 19 20 21 22 23 24 25 26 27 28 29 30 31 32 33 34 35 36 37 38 39 40 41 42 43 44 45 46 47 48 49 50
004
ASUS43 KFSD 171502
RWRSD

WEATHER ROUNDUP FOR SOUTH DAKOTA
NATIONAL WEATHER SERVICE SIOUX FALLS SD
900 AM CST TUE JAN 17 2017

NOTE: "FAIR" INDICATES FEW OR NO CLOUDS BELOW 12,000 FEET WITH NO
SIGNIFICANT WEATHER AND/OR OBSTRUCTIONS TO VISIBILITY.


SDZ001>005-009-010-012>017-171600-
NORTHWEST AND NORTH CENTRAL SOUTH DAKOTA

CITY           SKY/WX    TMP DP  RH WIND       PRES   REMARKS
BUFFALO          N/A     22   9  57 SW7       29.81F WCI  13
FAITH            N/A     15   8  73 SW13      29.92F WCI   1
MOBRIDGE       CLOUDY     6   1  80 SE7       29.95S WCI  -6
$$

SDZ012>016-024>037-041>051-057-063-072>074-171600-
SOUTHWEST AND SOUTH CENTRAL SOUTH DAKOTA

CITY           SKY/WX    TMP DP  RH WIND       PRES   REMARKS
RAPID CTY ARPT CLOUDY     9   4  80 CALM      29.94S
PIERRE         CLOUDY    13   8  81 W6        30.01R WCI   4
CUSTER         CLOUDY    21   4  47 SW5       29.91S WCI  15
ELLSWORTH AFB  CLOUDY    19   9  64 S5        29.92S WCI  12
PHILIP         CLOUDY    10   6  84 W5        30.00S WCI   2
PINE RIDGE     CLEAR      2  -1  88 CALM      29.99F
SPEARFISH      FAIR      19   9  63 S5        29.92S WCI  13
WINNER         FAIR      22  16  78 SW8       30.01F WCI  12
$$

SDZ004>011-016>023-039-040-171600-
NORTHEAST SOUTH DAKOTA

CITY           SKY/WX    TMP DP  RH WIND       PRES   REMARKS
ABERDEEN       CLOUDY     0  -5  79 S6        30.01R WCI -12
WATERTOWN      CLOUDY    -1  -4  87 S3        29.98S
BROOKINGS      CLOUDY    10   7  87 W3        30.00S
SISSETON         N/A      3   1  91 CALM      29.97S
$$

SDZ017-020-022-023-036>040-048>070-171600-
SOUTHEAST SOUTH DAKOTA

CITY           SKY/WX    TMP DP  RH WIND       PRES   REMARKS
SIOUX FALLS    CLOUDY    11   9  92 W3        30.03S
HURON          CLEAR      4   2  91 SE5       30.03S WCI  -5
CHAMBERLAIN    CLOUDY    16  13  87 W3        30.03S
MITCHELL       CLOUDY    11   9  92 W5        30.06S WCI   3
YANKTON        CLOUDY    16  12  86 CALM      30.07R
$$

ABBREVIATIONS USED IN REMARKS
   TC - TEMPERATURE IN CELSIUS
  WCI - WIND CHILL INDEX
   HX - HEAT INDEX
  VSB - VISIBILITY





USA.gov is the U.S. government's official web portal to all federal, state and local government web resources and services.